341  
ASUS41 KGYX 032010  
RWRGYX  
WEATHER ROUNDUP FOR MAINE AND NEW HAMPSHIRE  
NATIONAL WEATHER SERVICE GRAY ME  
400 PM EDT MON AUG 03 2020  
 
MEZ002-005-006-010-012-015-018-020-021-024-026-027-029-032100-  
MAINE  
 
CITY SKY/WX TMP DP RH WIND PRES REMARKS
 
PORTLAND PTSUNNY 90 61 37 W13G28 29.91R HX 90  
SANFORD SUNNY 87 63 44 W20G26 29.93R  
BAR HARBOR SUNNY 82 69 64 SW10 29.85R  
WISCASSET SUNNY 87 61 41 W16G29 29.90R  
ROCKLAND MOSUNNY 85 66 53 SW13G23 29.87R  
FRYEBURG CLOUDY 85 61 44 VRB7G22 29.94R  
LEWISTONAUBURN CLOUDY 86 64 47 W14G21 29.91R  
AUGUSTA CLOUDY 83 63 50 W15G22 29.90R  
WATERVILLE MOSUNNY 84 65 52 W8G17 29.87R  
BANGOR PTSUNNY 85 63 47 W12G22 29.84R  
GREENVILLE N/A 73 60 63 VRB7 29.88R  
MILLINOCKET PTSUNNY 80 62 54 W10G26 29.83R  
HOULTON PTSUNNY 83 69 62 SW9G21 29.75R  
PRESQUE ISLE PTSUNNY 81 66 60 W16G22 29.76R  
FRENCHVILLE CLOUDY 76 63 64 SW17G25 29.76R  
CARIBOU PTSUNNY 82 64 54 SW16G23 29.74R  

 
 
NHZ002-005-008-009-011-012-014-032100-  
NEW HAMPSHIRE  
 
CITY SKY/WX TMP DP RH WIND PRES REMARKS
 
PORTSMOUTH MOSUNNY 89 58 34 W14G22 29.91  
ROCHESTER MOSUNNY 87 59 38 W9G20 29.94R  
NASHUA MOSUNNY 87 63 44 W10G23 29.96S  
MANCHESTER MOSUNNY 89 60 37 W16G23 29.95R  
CONCORD PTSUNNY 85 60 42 W14G23 29.96R  
LACONIA CLOUDY 82 63 52 W14 29.96R  
PLYMOUTH FAIR 82 60 47 MISG 29.96R HAZE  
BERLIN N/A 79 60 52 W10G20 29.97R  
WHITEFIELD CLOUDY 78 59 51 VRB7G20 29.98R  
JAFFREY PTSUNNY 82 59 45 W10 30.03R  
KEENE MOSUNNY 82 62 50 W8G17 30.01R  
LEBANON PTSUNNY 84 62 47 SW12 29.97S  
MT WASHINGTON LGT RAIN 50 50 100 W62G68 N/A VSB 0  

 
 
VTZ005-007-008-032100-  
VERMONT  
 
CITY SKY/WX TMP DP RH WIND PRES REMARKS
 
ST JOHNSBURY N/A 77 61 57 MISG 29.97R  
MONTPELIER PTSUNNY 75 60 59 W13G20 30.04R  
BURLINGTON MOSUNNY 79 60 52 W10 29.99S  

 
 
MAZ007-012-024-CTZ003-RIZ002-NYZ038-NYZ072-032100-  
SOUTHERN NEW ENGLAND AND NY  
 
CITY SKY/WX TMP DP RH WIND PRES REMARKS
 
BOSTON MOSUNNY 91 61 36 W15G26 29.94R HX 91  
WORCESTER MOSUNNY 84 62 47 W12G23 30.02S  
NANTUCKET SUNNY 80 74 81 SW17 30.02S  
PROVIDENCE MOSUNNY 93 63 36 W15 29.97S HX 94  
HARTFORD MOSUNNY 91 61 36 W10G21 29.97F HX 91  
ALBANY PTSUNNY 82 62 50 W10 30.01S  
NEW YORK CITY MOSUNNY 92 59 33 SW15G21 30.00F HX 91  

 
 
ANZ081-ANZ082-ANZ150-NHZ014-MEZ023>029-032100-  
COASTAL MARINE OBSERVATIONS  
 
STATION/POSITION TIME TEMP WIND PRES WAVE
 
AIR SEA DIR/SP/G HT/PER  
(UTC) (F) (DEG/KT/KT) (MB) (FT/S)  
MOUNT DESERT ROC 2000 200/ 25/ 26 1011.5R  
ISLE OF SHOALS 1900 82 260/ 18/ 21 1012.4R  
JEFFREYS LEDGE 1905 71 N/A 3/ 3  

 
   
............KEY...........
 
 
WCI - WIND CHILL  
TC - TEMPERATURE IN CELSIUS  
VSB - VISIBILITY
IN MILES  
HX - HEAT INDEX  
FAIR- INDICATES FEW OR NO CLOUDS BELOW 12,000 FT, WITH NO  
SIGNIFICANT WEATHER AND/OR S TO VISIBILITY.  
 
 
 
CLICK HERE TO GO TO PREVIOUS BULLETINS.

The Nexlab ME Page
The Nexlab NH Page Main Text Page